This demonstration page uses our WeatherBlox Daily Observations layout. Learn more.

Left ArrowRight Arrow

36.17497, -115.13722

Hourly Observations for September 30, 2016

Temp ( °F °C ) Dew Point ( °F °C ) Humidity (%) Winds ( mph kmh ) Pressure ( in mb ) Visibility ( mi km ) Precip ( " mm )
12:53 am 00:53 Clear 75 23.9 49 9.4 40 40 N 7 11 30.04 1017 10 16.0934 0 0
1:53 am 01:53 Cloudy 74 23.3 48 8.9 40 40 N 6 9 30.05 1018 10 16.0934 0 0
2:53 am 02:53 Partly Cloudy 74 23.3 48 8.9 40 40 Calm 30.05 1018 10 16.0934 0 0
3:53 am 03:53 Mostly Clear 73 22.8 49 9.4 43 43 Calm 30.06 1018 10 16.0934 0 0
4:53 am 04:53 Clear 73 22.8 48 8.9 41 41 Calm 30.06 1018 10 16.0934 0 0
5:53 am 05:53 Partly Cloudy 73 22.8 50 10 44 44 WSW 3 6 30.07 1018 10 16.0934 0 0
6:53 am 06:53 Mostly Cloudy 72 22.2 51 10.6 48 48 SW 3 6 30.09 1019 10 16.0934 0 0
7:53 am 07:53 Mostly Sunny 74 23.3 52 11.1 46 46 SW 5 7 30.1 1019 10 16.0934 0 0
8:53 am 08:53 Sunny 77 25 53 11.7 43 43 SSE 5 7 30.11 1020 10 16.0934 0 0
9:53 am 09:53 Sunny 81 27.2 52 11.1 37 37 ESE 10 17 30.11 1020 10 16.0934 0 0
10:53 am 10:53 Sunny 82 27.8 51 10.6 34 34 ESE 9 15 30.09 1019 10 16.0934 0 0
11:53 am 11:53 Sunny 84 28.9 48 8.9 29 29 S 8 13 30.07 1018 10 16.0934 0 0
12:53 pm 12:53 Sunny 86 30 48 8.9 27 27 VRB 5 7 30.04 1017 10 16.0934 0 0
1:53 pm 13:53 Sunny 88 31.1 46 7.8 23 23 SE 8 13 29.99 1016 10 16.0934 0 0
2:53 pm 14:53 Sunny 89 31.7 45 7.2 22 22 SW 6 9 29.96 1014 10 16.0934 0 0
3:53 pm 15:53 Sunny 91 32.8 45 7.2 20 20 SSE 6 9 29.93 1014 10 16.0934 0 0
4:53 pm 16:53 Sunny 89 31.7 45 7.2 22 22 SE 6 9 29.92 1013 10 16.0934 0 0
5:53 pm 17:53 Sunny 88 31.1 45 7.2 22 22 SE 8 13 29.91 1013 10 16.0934 0 0
6:53 pm 18:53 Partly Cloudy 87 30.6 45 7.2 23 23 ESE 9 15 29.91 1013 10 16.0934 0 0
7:53 pm 19:53 Cloudy 86 30 46 7.8 25 25 SE 8 13 29.91 1013 10 16.0934 0 0
8:53 pm 20:53 Partly Cloudy 85 29.4 47 8.3 27 27 S 8 13 29.92 1013 10 16.0934 0 0
9:53 pm 21:53 Clear 81 27.2 46 7.8 29 29 ESE 6 9 29.92 1013 10 16.0934 0 0
10:53 pm 22:53 Clear 80 26.7 46 7.8 30 30 WNW 3 6 29.93 1014 10 16.0934 0 0
11:53 pm 23:53 Mostly Clear 77 25 46 7.8 33 33 Calm 29.94 1014 10 16.0934 0 0

Powered by AerisWeather